Regional Weather Roundup
Issued by NWS

Home | Current Version | Previous Version | Graphics & Text | Print | Product List | Glossary On
Versions: 1 2 3 4 5 6 7 8 9 10 11 12 13 14 15 16 17 18 19 20 21 22 23 24 25 26 27 28 29 30 31 32 33 34 35 36 37 38 39 40 41 42 43 44 45 46 47 48 49 50
000
ASUS43 KLSX 162007
RWRMO

WEATHER SUMMARY FOR MISSOURI
NATIONAL WEATHER SERVICE SPRINGFIELD MO
300 PM CDT WED APR 16 2014

NOTE: "FAIR" INDICATES FEW OR NO CLOUDS BELOW 12,000 FEET WITH NO
       SIGNIFICANT WEATHER AND/OR OBSTRUCTIONS TO VISIBILITY.
       CURRENT SKY AND/OR WEATHER CONDITIONS ARE NOT AVAILABLE FOR
       CHILLICOTHE AND FARMINGTON.

MOZ001>031-035>038-043-044-053-054-162100-
...NORTHERN AND WESTERN MISSOURI...

CITY           SKY/WX    TMP DP  RH WIND       PRES   REMARKS
KANSAS CTY INT PTSUNNY   65  31  28 S29G38    29.86S
KANSAS C DTWN  SUNNY     66  32  28 S30G38    29.89S
LEE`S SUMMIT   SUNNY     63  30  28 S25G37    29.89F
ST JOSEPH      MOSUNNY   65  32  29 S28G41    29.83F
CHILLICOTHE      N/A     63  32  31 S23G36    29.89F
KIRKSVILLE     MOSUNNY   64  31  28 S22G35    29.93F

$$
MOZ066>068-077>081-088>096-101>105-162100-
...SOUTHWEST MISSOURI...

CITY           SKY/WX    TMP DP  RH WIND       PRES   REMARKS
SPRINGFIELD    MOSUNNY   60  30  32 S22G33    30.00F
JOPLIN         SUNNY     63  31  30 S23G32    29.97F

$$
MOZ032>034-039>042-045>050-055>058-069>072-162100-
...CENTRAL MISSOURI...

CITY           SKY/WX    TMP DP  RH WIND       PRES   REMARKS
COLUMBIA       SUNNY     61  28  28 S22G31    30.01F
JEFFERSON CITY SUNNY     60  26  27 SE23G33   30.02F
ROLLA          MOSUNNY   57  26  30 S22G28    30.04F
SEDALIA        SUNNY     64  31  28 S25G33    29.96F
WHITEMAN AFB   SUNNY     63  33  33 S25G33    29.92F
OSAGE BEACH    SUNNY     61  25  25 S17G28    30.04F

$$
MOZ051-052-059>065-162100-
...EAST CENTRAL MISSOURI...

CITY           SKY/WX    TMP DP  RH WIND       PRES   REMARKS
ST LOUIS INTL  PTSUNNY   57  24  28 S22G31    30.14F
SPIRIT OF STL  MOSUNNY   58  25  28 SE14G24   30.11F
ST CHARLES     MOSUNNY   56  30  37 SE22G31   30.11F

$$
MOZ072>076-082>087-097>100-106>115-162100-
...SOUTH CENTRAL AND SOUTHEAST MISSOURI...

CITY           SKY/WX    TMP DP  RH WIND       PRES   REMARKS
CAPE GIRARDEAU MOSUNNY   55  28  35 SE13      30.19F
FARMINGTON     PTSUNNY   54  25  32 SE14G20   30.16F
POPLAR BLUFF   SUNNY     55  31  39 SE12      30.18F
WEST PLAINS    CLOUDY    53  23  31 S20G25    30.12F

$$



USA.gov is the U.S. government's official web portal to all federal, state and local government web resources and services.